ARG1219 SBBR-SABE

Flight info

Callsign ARG1219
Flight time N/A
Altitude FL360
Route PAPI2A KUKOL UM532 CUARA UL324 KUKEN
Aircraft B38M/M-SDE2E3FGHIRWXY/LB1

Departure

Time 2026-05-07 21:25
Airport Presidente Juscelino Kubitschek International Airport (SBBR)

Arrival

Time N/A
Airport Aeroparque Jorge Newbery (SABE)
Time Latitude Longitude Altitude Speed Heading
2026-05-07 21:06 -15.86758 -47.92103 3464 ft 0 kts 122°
2026-05-07 21:13 -15.86755 -47.92107 3369 ft 3 kts 122°
2026-05-07 21:13 -15.86742 -47.92131 3467 ft 4 kts 114°
2026-05-07 21:14 -15.86734 -47.92158 3465 ft 4 kts 97°
2026-05-07 21:14 -15.86736 -47.92183 3466 ft 4 kts 54°
2026-05-07 21:14 -15.86746 -47.92191 3466 ft 1 kts 25°
2026-05-07 21:14 -15.86748 -47.92192 3466 ft 0 kts 25°
2026-05-07 21:20 -15.86747 -47.92192 3466 ft 1 kts 25°
2026-05-07 21:21 -15.86730 -47.92183 3466 ft 5 kts 25°
2026-05-07 21:21 -15.86679 -47.92158 3466 ft 11 kts 25°
2026-05-07 21:21 -15.86624 -47.92181 3466 ft 11 kts 290°
2026-05-07 21:21 -15.86582 -47.92278 3464 ft 18 kts 300°
2026-05-07 21:22 -15.86530 -47.92418 3463 ft 24 kts 266°
2026-05-07 21:22 -15.86542 -47.92609 3464 ft 29 kts 266°
2026-05-07 21:22 -15.86548 -47.92806 3464 ft 0 kts 272°
2026-05-07 21:23 -15.86547 -47.92806 3464 ft 0 kts 276°
2026-05-07 21:23 -15.86542 -47.92806 3464 ft 2 kts 10°
2026-05-07 21:23 -15.86488 -47.92782 3463 ft 13 kts
2026-05-07 21:23 -15.86388 -47.92752 3461 ft 18 kts 39°
2026-05-07 21:24 -15.86352 -47.92657 3463 ft 13 kts 85°
2026-05-07 21:24 -15.86344 -47.92545 3465 ft 21 kts 86°
2026-05-07 21:24 -15.86319 -47.92172 3469 ft 81 kts 86°
2026-05-07 21:24 -15.86270 -47.91397 3466 ft 132 kts 86°
2026-05-07 21:25 -15.86202 -47.90302 3493 ft 170 kts 85°
2026-05-07 21:25 -15.86125 -47.89053 3937 ft 164 kts 86°
2026-05-07 21:25 -15.86097 -47.87810 4202 ft 187 kts 97°
2026-05-07 21:25 -15.86693 -47.86635 4763 ft 182 kts 133°
2026-05-07 21:26 -15.87822 -47.85925 5040 ft 202 kts 165°
2026-05-07 21:26 -15.89225 -47.85811 5493 ft 207 kts 176°
2026-05-07 21:26 -15.90735 -47.85732 5773 ft 228 kts 175°
2026-05-07 21:26 -15.92403 -47.85611 6040 ft 253 kts 174°
2026-05-07 21:27 -15.94233 -47.85460 6438 ft 270 kts 173°
2026-05-07 21:27 -15.96129 -47.85302 7030 ft 281 kts 174°
2026-05-07 21:27 -15.98133 -47.85134 7508 ft 295 kts 174°
2026-05-07 21:27 -16.00179 -47.84967 8302 ft 297 kts 175°
2026-05-07 21:28 -16.02254 -47.84825 8913 ft 302 kts 183°
2026-05-07 21:28 -16.04256 -47.85298 9811 ft 298 kts 206°
2026-05-07 21:28 -16.05943 -47.86570 10298 ft 307 kts 231°
2026-05-07 21:28 -16.07037 -47.88509 10590 ft 321 kts 254°
2026-05-07 21:29 -16.07367 -47.90835 10872 ft 335 kts 268°
2026-05-07 21:29 -16.07527 -47.93296 11261 ft 348 kts 267°
2026-05-07 21:29 -16.07694 -47.95802 11963 ft 348 kts 268°
2026-05-07 21:29 -16.08080 -47.98300 12567 ft 355 kts 251°
2026-05-07 21:30 -16.09158 -48.00609 13240 ft 359 kts 243°
2026-05-07 21:30 -16.10339 -48.02907 13827 ft 363 kts 243°
2026-05-07 21:30 -16.11541 -48.05219 14395 ft 366 kts 242°
2026-05-07 21:30 -16.12759 -48.07546 14956 ft 369 kts 242°
2026-05-07 21:31 -16.13991 -48.09890 15495 ft 372 kts 242°
2026-05-07 21:31 -16.15235 -48.12258 16014 ft 375 kts 241°
2026-05-07 21:31 -16.16491 -48.14646 16554 ft 378 kts 241°
2026-05-07 21:31 -16.17755 -48.17051 17084 ft 381 kts 241°
2026-05-07 21:32 -16.19026 -48.19471 17603 ft 384 kts 240°
2026-05-07 21:32 -16.20307 -48.21910 18106 ft 386 kts 240°
2026-05-07 21:32 -16.21598 -48.24369 18544 ft 389 kts 240°
2026-05-07 21:32 -16.22958 -48.26801 18966 ft 390 kts 232°
2026-05-07 21:33 -16.24849 -48.28797 19405 ft 388 kts 214°
2026-05-07 21:33 -16.27212 -48.30133 19796 ft 389 kts 200°
2026-05-07 21:33 -16.29746 -48.31120 20186 ft 391 kts 199°
2026-05-07 21:33 -16.32309 -48.32068 20610 ft 392 kts 198°
2026-05-07 21:34 -16.34892 -48.32996 21023 ft 394 kts 198°
2026-05-07 21:34 -16.37488 -48.33911 21438 ft 396 kts 197°
2026-05-07 21:34 -16.40098 -48.34821 21837 ft 398 kts 197°
2026-05-07 21:34 -16.42726 -48.35734 22243 ft 399 kts 197°
2026-05-07 21:35 -16.45363 -48.36648 22648 ft 401 kts 197°
2026-05-07 21:35 -16.48011 -48.37565 23042 ft 403 kts 197°
2026-05-07 21:35 -16.50675 -48.38488 23412 ft 405 kts 197°
2026-05-07 21:35 -16.53348 -48.39415 23754 ft 407 kts 197°
2026-05-07 21:36 -16.56034 -48.40346 24061 ft 408 kts 198°
2026-05-07 21:36 -16.58729 -48.41280 24374 ft 410 kts 198°
2026-05-07 21:36 -16.61438 -48.42220 24679 ft 412 kts 198°
2026-05-07 21:36 -16.64159 -48.43164 24994 ft 414 kts 198°
2026-05-07 21:37 -16.66891 -48.44113 25301 ft 416 kts 198°
2026-05-07 21:37 -16.69600 -48.45171 25595 ft 418 kts 205°
2026-05-07 21:37 -16.72212 -48.46495 25902 ft 420 kts 205°
2026-05-07 21:37 -16.74839 -48.47822 26193 ft 422 kts 205°
2026-05-07 21:38 -16.77476 -48.49161 26500 ft 423 kts 205°
2026-05-07 21:38 -16.80128 -48.50509 26793 ft 425 kts 205°
2026-05-07 21:38 -16.82786 -48.51861 27095 ft 427 kts 205°
2026-05-07 21:38 -16.85455 -48.53220 27384 ft 429 kts 205°
2026-05-07 21:39 -16.88136 -48.54585 27671 ft 431 kts 205°
2026-05-07 21:39 -16.90830 -48.55957 27952 ft 432 kts 205°
2026-05-07 21:39 -16.93532 -48.57334 28232 ft 434 kts 206°
2026-05-07 21:39 -16.96246 -48.58718 28503 ft 436 kts 206°
2026-05-07 21:40 -16.98973 -48.60108 28781 ft 438 kts 206°
2026-05-07 21:40 -17.01707 -48.61502 29052 ft 439 kts 206°
2026-05-07 21:40 -17.04453 -48.62903 29303 ft 441 kts 206°
2026-05-07 21:40 -17.07214 -48.64312 29557 ft 443 kts 206°
2026-05-07 21:41 -17.09980 -48.65724 29821 ft 445 kts 206°
2026-05-07 21:41 -17.12764 -48.67146 30064 ft 447 kts 206°
2026-05-07 21:41 -17.15553 -48.68571 30292 ft 448 kts 206°
2026-05-07 21:41 -17.18352 -48.70001 30518 ft 449 kts 206°
2026-05-07 21:42 -17.21153 -48.71436 30754 ft 450 kts 207°
2026-05-07 21:42 -17.23932 -48.72933 30970 ft 451 kts 207°
2026-05-07 21:42 -17.26718 -48.74439 31201 ft 452 kts 207°
2026-05-07 21:42 -17.29511 -48.75945 31453 ft 452 kts 207°
2026-05-07 21:43 -17.32297 -48.77446 31753 ft 451 kts 207°
2026-05-07 21:43 -17.35082 -48.78946 32072 ft 450 kts 207°
2026-05-07 21:43 -17.37855 -48.80441 32416 ft 448 kts 207°
2026-05-07 21:43 -17.40611 -48.81926 32796 ft 445 kts 207°
2026-05-07 21:44 -17.43357 -48.83407 33163 ft 443 kts 207°
2026-05-07 21:44 -17.46083 -48.84877 33522 ft 441 kts 208°
2026-05-07 21:44 -17.48803 -48.86345 33852 ft 440 kts 208°
2026-05-07 21:44 -17.51509 -48.87806 34160 ft 438 kts 208°
2026-05-07 21:45 -17.54208 -48.89264 34444 ft 436 kts 208°
2026-05-07 21:45 -17.56891 -48.90713 34741 ft 434 kts 208°
2026-05-07 21:45 -17.59567 -48.92160 35011 ft 432 kts 208°
2026-05-07 21:45 -17.62231 -48.93600 35272 ft 431 kts 208°
2026-05-07 21:46 -17.64883 -48.95034 35526 ft 429 kts 208°
2026-05-07 21:46 -17.67528 -48.96464 35769 ft 428 kts 209°
2026-05-07 21:46 -17.70163 -48.97890 35957 ft 427 kts 209°
2026-05-07 21:46 -17.72798 -48.99310 35971 ft 426 kts 208°
2026-05-07 21:47 -17.78055 -49.02095 35969 ft 424 kts 208°
2026-05-07 21:47 -17.83305 -49.04881 35964 ft 424 kts 208°
2026-05-07 21:48 -17.88558 -49.07672 35965 ft 424 kts 208°
2026-05-07 21:48 -17.93806 -49.10463 35959 ft 424 kts 208°
2026-05-07 21:49 -17.99051 -49.13253 35963 ft 424 kts 208°
2026-05-07 21:49 -18.04296 -49.16046 35963 ft 423 kts 208°
2026-05-07 21:50 -18.09542 -49.18841 35958 ft 423 kts 208°
2026-05-07 21:50 -18.14767 -49.21662 35956 ft 423 kts 209°
2026-05-07 21:51 -18.19994 -49.24485 35955 ft 423 kts 209°
2026-05-07 21:51 -18.25222 -49.27309 35953 ft 423 kts 209°
2026-05-07 21:52 -18.30449 -49.30135 35950 ft 423 kts 209°
2026-05-07 21:52 -18.35667 -49.32958 35950 ft 423 kts 209°
2026-05-07 21:53 -18.40886 -49.35783 35954 ft 423 kts 209°
2026-05-07 21:53 -18.46108 -49.38612 35949 ft 423 kts 209°
2026-05-07 21:54 -18.51327 -49.41441 35946 ft 423 kts 209°
2026-05-07 21:54 -18.56547 -49.44273 35947 ft 423 kts 209°
2026-05-07 21:55 -18.61763 -49.47104 35948 ft 423 kts 209°
2026-05-07 21:55 -18.66980 -49.49939 35949 ft 423 kts 209°
2026-05-07 21:56 -18.72197 -49.52774 35945 ft 423 kts 209°
2026-05-07 21:56 -18.77412 -49.55611 35945 ft 423 kts 209°
2026-05-07 21:57 -18.82630 -49.58456 35948 ft 423 kts 209°
2026-05-07 21:57 -18.87838 -49.61313 35948 ft 423 kts 209°
2026-05-07 21:58 -18.93048 -49.64171 35946 ft 423 kts 210°
2026-05-07 21:58 -18.98264 -49.67035 35949 ft 423 kts 210°
2026-05-07 21:59 -19.03473 -49.69896 35948 ft 423 kts 210°
2026-05-07 21:59 -19.08685 -49.72762 35946 ft 423 kts 210°
2026-05-07 22:00 -19.13898 -49.75630 35947 ft 423 kts 210°
2026-05-07 22:00 -19.19104 -49.78496 35949 ft 423 kts 210°
2026-05-07 22:01 -19.24308 -49.81363 35948 ft 423 kts 210°
2026-05-07 22:01 -19.29519 -49.84236 35952 ft 423 kts 210°
2026-05-07 22:02 -19.34732 -49.87095 35948 ft 423 kts 209°
2026-05-07 22:02 -19.39983 -49.89899 35947 ft 424 kts 210°
2026-05-07 22:03 -19.45234 -49.92712 35942 ft 424 kts 210°
2026-05-07 22:03 -19.50481 -49.95526 35940 ft 424 kts 210°
2026-05-07 22:04 -19.55728 -49.98342 35940 ft 424 kts 210°
2026-05-07 22:04 -19.60979 -50.01163 35936 ft 424 kts 210°
2026-05-07 22:05 -19.66221 -50.03980 35938 ft 423 kts 210°
2026-05-07 22:05 -19.71464 -50.06801 35930 ft 423 kts 210°
2026-05-07 22:06 -19.76704 -50.09621 35939 ft 423 kts 210°
2026-05-07 22:06 -19.81946 -50.12445 35938 ft 423 kts 210°
2026-05-07 22:07 -19.87187 -50.15271 35933 ft 423 kts 210°
2026-05-07 22:07 -19.92424 -50.18097 35935 ft 423 kts 210°
2026-05-07 22:08 -19.97661 -50.20924 35932 ft 423 kts 210°
2026-05-07 22:08 -20.02893 -50.23753 35933 ft 423 kts 210°
2026-05-07 22:09 -20.08120 -50.26581 35933 ft 423 kts 210°
2026-05-07 22:09 -20.13345 -50.29417 35930 ft 422 kts 210°
2026-05-07 22:10 -20.18564 -50.32254 35937 ft 422 kts 210°
2026-05-07 22:10 -20.23777 -50.35091 35931 ft 422 kts 210°
2026-05-07 22:11 -20.28990 -50.37929 35930 ft 421 kts 210°
2026-05-07 22:11 -20.34198 -50.40767 35930 ft 421 kts 210°
2026-05-07 22:12 -20.39400 -50.43604 35922 ft 421 kts 210°
2026-05-07 22:12 -20.44599 -50.46441 35925 ft 420 kts 210°
2026-05-07 22:13 -20.49791 -50.49277 35927 ft 420 kts 210°
2026-05-07 22:13 -20.54983 -50.52115 35929 ft 420 kts 210°
2026-05-07 22:14 -20.60170 -50.54952 35926 ft 420 kts 210°
2026-05-07 22:14 -20.65348 -50.57787 35921 ft 419 kts 210°
2026-05-07 22:15 -20.70526 -50.60623 35921 ft 419 kts 210°
2026-05-07 22:15 -20.75701 -50.63460 35916 ft 419 kts 210°
2026-05-07 22:16 -20.80851 -50.66347 35914 ft 419 kts 211°
2026-05-07 22:16 -20.85988 -50.69251 35915 ft 418 kts 211°
2026-05-07 22:17 -20.91122 -50.72153 35913 ft 418 kts 211°
2026-05-07 22:17 -20.96257 -50.75057 35918 ft 418 kts 211°
2026-05-07 22:18 -21.03956 -50.79416 35914 ft 418 kts 211°
2026-05-07 22:19 -21.09081 -50.82320 35909 ft 418 kts 211°
2026-05-07 22:19 -21.14203 -50.85232 35912 ft 418 kts 211°
2026-05-07 22:20 -21.19323 -50.88148 35907 ft 418 kts 211°
2026-05-07 22:20 -21.24443 -50.91067 35906 ft 418 kts 211°
2026-05-07 22:21 -21.29567 -50.93985 35903 ft 418 kts 211°
2026-05-07 22:21 -21.34683 -50.96901 35907 ft 417 kts 211°
2026-05-07 22:22 -21.39800 -50.99820 35902 ft 417 kts 211°
2026-05-07 22:22 -21.44916 -51.02741 35902 ft 417 kts 211°
2026-05-07 22:23 -21.50036 -51.05651 35899 ft 417 kts 211°
2026-05-07 22:23 -21.55156 -51.08561 35903 ft 417 kts 211°
2026-05-07 22:24 -21.60295 -51.11439 35896 ft 417 kts 210°
2026-05-07 22:24 -21.65433 -51.14321 35901 ft 417 kts 210°
2026-05-07 22:25 -21.70569 -51.17204 35893 ft 417 kts 210°
2026-05-07 22:25 -21.75733 -51.20031 35897 ft 418 kts 210°
2026-05-07 22:26 -21.80914 -51.22830 35895 ft 418 kts 210°
2026-05-07 22:26 -21.86090 -51.25634 35896 ft 417 kts 210°
2026-05-07 22:27 -21.91268 -51.28441 35898 ft 417 kts 210°
2026-05-07 22:27 -21.96445 -51.31249 35902 ft 417 kts 210°
2026-05-07 22:28 -22.01618 -51.34058 35904 ft 417 kts 210°
2026-05-07 22:28 -22.06784 -51.36866 35908 ft 417 kts 210°
2026-05-07 22:29 -22.11956 -51.39678 35910 ft 417 kts 210°
2026-05-07 22:29 -22.17141 -51.42461 35907 ft 418 kts 206°
2026-05-07 22:30 -22.22497 -51.44891 35909 ft 419 kts 206°
2026-05-07 22:30 -22.27838 -51.47364 35909 ft 418 kts 207°
2026-05-07 22:31 -22.33171 -51.49842 35901 ft 418 kts 207°
2026-05-07 22:31 -22.38508 -51.52325 35900 ft 418 kts 207°
2026-05-07 22:32 -22.43836 -51.54806 35889 ft 418 kts 207°